Time,TemperatureF,DewpointF,PressureIn,WindDirection,WindDirectionDegrees,WindSpeedMPH,WindSpeedGustMPH,Humidity,HourlyPrecipIn,Conditions,Clouds,dailyrainin,SoftwareType,DateUTC
2013-01-05 00:00:00,45.9,20.4,30.06,North,11,0.0,0.0,36,0.00,,CLR,0.00,VWS V14.01,2013-01-05 08:00:00,
2013-01-05 00:05:00,45.9,20.4,30.06,North,10,0.0,0.0,36,0.00,,CLR,0.00,VWS V14.01,2013-01-05 08:05:00,
2013-01-05 00:10:00,45.9,20.4,30.06,North,11,0.0,0.0,36,0.00,,CLR,0.00,VWS V14.01,2013-01-05 08:10:00,
2013-01-05 00:15:00,45.9,20.4,30.06,North,11,0.0,0.0,36,0.00,,CLR,0.00,VWS V14.01,2013-01-05 08:15:00,
2013-01-05 00:20:00,45.7,20.3,30.06,North,8,0.0,0.0,36,0.00,,CLR,0.00,VWS V14.01,2013-01-05 08:20:00,
2013-01-05 00:25:00,45.7,20.3,30.06,NE,47,0.0,0.0,36,0.00,,CLR,0.00,VWS V14.01,2013-01-05 08:25:00,
2013-01-05 00:30:00,45.3,20.6,30.06,NE,47,0.0,0.0,37,0.00,,CLR,0.00,VWS V14.01,2013-01-05 08:30:00,
2013-01-05 00:35:00,45.3,20.6,30.06,NE,47,0.0,0.0,37,0.00,,CLR,0.00,VWS V14.01,2013-01-05 08:35:00,
2013-01-05 00:40:00,45.3,20.6,30.06,NE,47,0.0,0.0,37,0.00,,CLR,0.00,VWS V14.01,2013-01-05 08:40:00,
2013-01-05 00:45:00,45.1,20.4,30.06,NE,47,0.0,0.0,37,0.00,,CLR,0.00,VWS V14.01,2013-01-05 08:45:00,
2013-01-05 00:50:00,45.1,20.4,30.06,NE,47,0.0,0.0,37,0.00,,CLR,0.00,VWS V14.01,2013-01-05 08:50:00,
2013-01-05 00:55:00,45.1,20.4,30.06,NE,47,0.0,0.0,37,0.00,,CLR,0.00,VWS V14.01,2013-01-05 08:55:00,
2013-01-05 01:00:00,45.0,20.9,30.06,NE,47,0.0,0.0,38,0.00,,CLR,0.00,VWS V14.01,2013-01-05 09:00:00,
2013-01-05 01:05:00,44.8,20.7,30.06,NE,47,0.0,0.0,38,0.00,,CLR,0.00,VWS V14.01,2013-01-05 09:05:00,
2013-01-05 01:10:00,44.6,20.6,30.06,NE,48,0.0,0.0,38,0.00,,CLR,0.00,VWS V14.01,2013-01-05 09:10:00,
2013-01-05 01:15:00,44.2,20.3,30.06,NE,47,0.0,0.0,38,0.00,,CLR,0.00,VWS V14.01,2013-01-05 09:15:00,
2013-01-05 01:20:00,44.2,20.3,30.06,NE,37,0.0,0.0,38,0.00,,CLR,0.00,VWS V14.01,2013-01-05 09:20:00,
2013-01-05 01:25:00,44.2,20.3,30.06,NE,37,0.0,0.0,38,0.00,,CLR,0.00,VWS V14.01,2013-01-05 09:25:00,
2013-01-05 01:30:00,44.2,20.3,30.06,NE,36,0.0,0.0,38,0.00,,CLR,0.00,VWS V14.01,2013-01-05 09:30:00,
2013-01-05 01:35:00,44.4,20.4,30.06,NE,37,0.0,0.0,38,0.00,,CLR,0.00,VWS V14.01,2013-01-05 09:35:00,
2013-01-05 01:40:00,44.2,20.3,30.06,NE,36,0.0,0.0,38,0.00,,CLR,0.00,VWS V14.01,2013-01-05 09:40:00,
2013-01-05 01:45:00,44.1,20.1,30.06,NE,37,0.0,0.0,38,0.00,,CLR,0.00,VWS V14.01,2013-01-05 09:45:00,
2013-01-05 01:50:00,43.9,19.9,30.06,NE,37,0.0,0.0,38,0.00,,CLR,0.00,VWS V14.01,2013-01-05 09:50:00,
2013-01-05 01:55:00,43.9,20.5,30.06,NE,36,0.0,0.0,39,0.00,,CLR,0.00,VWS V14.01,2013-01-05 09:55:00,
2013-01-05 02:00:00,43.9,20.5,30.06,NE,37,0.0,0.0,39,0.00,,CLR,0.00,VWS V14.01,2013-01-05 10:00:00,
2013-01-05 02:05:00,43.7,20.4,30.06,NE,37,0.0,0.0,39,0.00,,CLR,0.00,VWS V14.01,2013-01-05 10:05:00,
2013-01-05 02:10:00,43.7,20.4,30.06,NE,37,0.0,0.0,39,0.00,,CLR,0.00,VWS V14.01,2013-01-05 10:10:00,
2013-01-05 02:15:00,43.7,20.4,30.06,NE,36,0.0,0.0,39,0.00,,CLR,0.00,VWS V14.01,2013-01-05 10:15:00,
2013-01-05 02:20:00,43.5,20.2,30.06,NE,36,0.0,0.0,39,0.00,,CLR,0.00,VWS V14.01,2013-01-05 10:20:00,
2013-01-05 02:25:00,43.3,20.1,30.06,NE,37,0.0,0.0,39,0.00,,CLR,0.00,VWS V14.01,2013-01-05 10:25:00,
2013-01-05 02:30:00,43.2,19.9,30.06,NE,37,0.0,0.0,39,0.00,,CLR,0.00,VWS V14.01,2013-01-05 10:30:00,
2013-01-05 02:35:00,43.2,19.9,30.06,NE,37,0.0,0.0,39,0.00,,CLR,0.00,VWS V14.01,2013-01-05 10:35:00,
2013-01-05 02:40:00,43.2,19.9,30.06,NE,37,0.0,0.0,39,0.00,,CLR,0.00,VWS V14.01,2013-01-05 10:40:00,
2013-01-05 02:45:00,43.2,19.9,30.06,NE,36,0.0,0.0,39,0.00,,CLR,0.00,VWS V14.01,2013-01-05 10:45:00,
2013-01-05 02:50:00,43.5,20.8,30.06,NE,37,0.0,0.0,40,0.00,,CLR,0.00,VWS V14.01,2013-01-05 10:50:00,
2013-01-05 02:55:00,43.5,20.8,30.06,NE,36,0.0,0.0,40,0.00,,CLR,0.00,VWS V14.01,2013-01-05 10:55:00,
2013-01-05 03:00:00,43.3,20.6,30.09,NE,36,0.0,0.0,40,0.00,,CLR,0.00,VWS V14.01,2013-01-05 11:00:00,
2013-01-05 03:05:00,43.3,20.6,30.09,NE,37,0.0,0.0,40,0.00,,CLR,0.00,VWS V14.01,2013-01-05 11:05:00,
2013-01-05 03:10:00,43.3,20.6,30.09,NE,36,0.0,0.0,40,0.00,,CLR,0.00,VWS V14.01,2013-01-05 11:10:00,
2013-01-05 03:15:00,43.3,20.6,30.09,NE,37,0.0,0.0,40,0.00,,CLR,0.00,VWS V14.01,2013-01-05 11:15:00,
2013-01-05 03:20:00,43.0,20.3,30.09,NE,37,0.0,0.0,40,0.00,,CLR,0.00,VWS V14.01,2013-01-05 11:20:00,
2013-01-05 03:25:00,43.5,21.4,30.09,NE,37,0.0,0.0,41,0.00,,CLR,0.00,VWS V14.01,2013-01-05 11:25:00,
2013-01-05 03:30:00,43.5,21.4,30.09,NE,36,0.0,0.0,41,0.00,,CLR,0.00,VWS V14.01,2013-01-05 11:30:00,
2013-01-05 03:35:00,43.9,21.7,30.09,NE,49,0.0,0.0,41,0.00,,CLR,0.00,VWS V14.01,2013-01-05 11:35:00,
2013-01-05 03:40:00,43.9,21.7,30.09,NE,53,0.0,0.0,41,0.00,,CLR,0.00,VWS V14.01,2013-01-05 11:40:00,
2013-01-05 03:45:00,44.6,22.4,30.09,ENE,57,0.0,0.0,41,0.00,,CLR,0.00,VWS V14.01,2013-01-05 11:45:00,
2013-01-05 03:50:00,45.0,22.7,30.09,ENE,57,0.0,0.0,41,0.00,,CLR,0.00,VWS V14.01,2013-01-05 11:50:00,
2013-01-05 03:55:00,45.1,22.3,30.09,ENE,58,0.0,0.0,40,0.00,,CLR,0.00,VWS V14.01,2013-01-05 11:55:00,
2013-01-05 04:00:00,45.1,22.3,30.09,ENE,58,0.0,0.0,40,0.00,,CLR,0.00,VWS V14.01,2013-01-05 12:00:00,
2013-01-05 04:05:00,45.0,22.1,30.09,ENE,57,0.0,0.0,40,0.00,,CLR,0.00,VWS V14.01,2013-01-05 12:05:00,
2013-01-05 04:10:00,44.8,22.0,30.09,ENE,58,0.0,0.0,40,0.00,,CLR,0.00,VWS V14.01,2013-01-05 12:10:00,
2013-01-05 04:15:00,44.8,22.0,30.09,ENE,58,0.0,0.0,40,0.00,,CLR,0.00,VWS V14.01,2013-01-05 12:15:00,
2013-01-05 04:20:00,44.6,21.8,30.09,ENE,58,0.0,0.0,40,0.00,,CLR,0.00,VWS V14.01,2013-01-05 12:20:00,
2013-01-05 04:25:00,44.6,21.8,30.09,ENE,58,0.0,0.0,40,0.00,,CLR,0.00,VWS V14.01,2013-01-05 12:25:00,
2013-01-05 04:30:00,44.2,21.5,30.09,ENE,57,0.0,0.0,40,0.00,,CLR,0.00,VWS V14.01,2013-01-05 12:30:00,
2013-01-05 04:35:00,44.1,21.3,30.09,ENE,58,0.0,0.0,40,0.00,,CLR,0.00,VWS V14.01,2013-01-05 12:35:00,
2013-01-05 04:40:00,44.1,21.3,30.09,ENE,57,0.0,0.0,40,0.00,,CLR,0.00,VWS V14.01,2013-01-05 12:40:00,
2013-01-05 04:45:00,43.9,21.7,30.09,ENE,58,0.0,0.0,41,0.00,,CLR,0.00,VWS V14.01,2013-01-05 12:45:00,
2013-01-05 04:50:00,43.7,21.6,30.09,ENE,58,0.0,0.0,41,0.00,,CLR,0.00,VWS V14.01,2013-01-05 12:50:00,
2013-01-05 04:55:00,43.9,21.7,30.09,ENE,58,0.0,0.0,41,0.00,,CLR,0.00,VWS V14.01,2013-01-05 12:55:00,
2013-01-05 05:00:00,43.7,21.6,30.09,ENE,58,0.0,0.0,41,0.00,,CLR,0.00,VWS V14.01,2013-01-05 13:00:00,
2013-01-05 05:05:00,43.7,21.6,30.09,ENE,58,0.0,0.0,41,0.00,,SCT023,0.00,VWS V14.01,2013-01-05 13:05:00,
2013-01-05 05:10:00,43.9,21.7,30.09,ENE,58,0.0,0.0,41,0.00,,BKN023,0.00,VWS V14.01,2013-01-05 13:10:00,
2013-01-05 05:15:00,43.9,21.7,30.09,ENE,58,0.0,0.0,41,0.00,,BKN023,0.00,VWS V14.01,2013-01-05 13:15:00,
2013-01-05 05:20:00,44.1,22.5,30.09,ENE,58,0.0,0.0,42,0.00,,BKN023,0.00,VWS V14.01,2013-01-05 13:20:00,
2013-01-05 05:25:00,44.2,22.6,30.09,ENE,57,0.0,0.0,42,0.00,,BKN023,0.00,VWS V14.01,2013-01-05 13:25:00,
2013-01-05 05:30:00,44.4,22.8,30.09,ENE,58,0.0,0.0,42,0.00,,BKN023,0.00,VWS V14.01,2013-01-05 13:30:00,
2013-01-05 05:35:00,44.4,22.8,30.09,ENE,58,0.0,0.0,42,0.00,,BKN023,0.00,VWS V14.01,2013-01-05 13:35:00,
2013-01-05 05:40:00,44.8,23.1,30.09,ENE,58,0.0,0.0,42,0.00,,BKN023,0.00,VWS V14.01,2013-01-05 13:40:00,
2013-01-05 05:45:00,45.1,23.4,30.09,ENE,58,0.0,0.0,42,0.00,,BKN023,0.00,VWS V14.01,2013-01-05 13:45:00,
2013-01-05 05:50:00,45.1,23.4,30.09,ENE,59,0.0,0.0,42,0.00,,BKN023,0.00,VWS V14.01,2013-01-05 13:50:00,
2013-01-05 05:55:00,45.5,23.8,30.09,ENE,57,0.0,0.0,42,0.00,,BKN023,0.00,VWS V14.01,2013-01-05 13:55:00,
2013-01-05 06:00:00,45.5,23.8,30.09,ENE,58,0.0,0.0,42,0.00,,BKN023,0.00,VWS V14.01,2013-01-05 14:00:00,
2013-01-05 06:05:00,45.7,23.9,30.09,ENE,58,0.0,0.0,42,0.00,,OVC023,0.00,VWS V14.01,2013-01-05 14:05:00,
2013-01-05 06:10:00,45.9,24.1,30.09,ENE,58,0.0,0.0,42,0.00,,OVC023,0.00,VWS V14.01,2013-01-05 14:10:00,
2013-01-05 06:15:00,45.9,24.1,30.09,ENE,58,0.0,0.0,42,0.00,,OVC023,0.00,VWS V14.01,2013-01-05 14:15:00,
2013-01-05 06:20:00,45.9,24.1,30.09,ENE,58,0.0,0.0,42,0.00,,OVC023,0.00,VWS V14.01,2013-01-05 14:20:00,
2013-01-05 06:25:00,46.0,24.2,30.09,ENE,58,0.0,0.0,42,0.00,,OVC023,0.00,VWS V14.01,2013-01-05 14:25:00,
2013-01-05 06:30:00,46.0,24.2,30.09,ENE,57,0.0,0.0,42,0.00,,OVC023,0.00,VWS V14.01,2013-01-05 14:30:00,
2013-01-05 06:35:00,46.2,25.0,30.09,ENE,58,0.0,0.0,43,0.00,,OVC023,0.00,VWS V14.01,2013-01-05 14:35:00,
2013-01-05 06:40:00,46.2,25.0,30.09,ENE,58,0.0,0.0,43,0.00,,OVC023,0.00,VWS V14.01,2013-01-05 14:40:00,
2013-01-05 06:45:00,46.2,25.0,30.09,ENE,58,0.0,0.0,43,0.00,,OVC023,0.00,VWS V14.01,2013-01-05 14:45:00,
2013-01-05 06:50:00,46.2,25.0,30.09,ENE,58,0.0,0.0,43,0.00,,OVC023,0.00,VWS V14.01,2013-01-05 14:50:00,
2013-01-05 06:55:00,46.4,24.6,30.09,ENE,58,0.0,0.0,42,0.00,,OVC023,0.00,VWS V14.01,2013-01-05 14:55:00,
2013-01-05 07:00:00,46.4,24.6,30.09,ENE,58,0.0,0.0,42,0.00,,OVC023,0.00,VWS V14.01,2013-01-05 15:00:00,
2013-01-05 07:05:00,46.6,24.7,30.09,ENE,58,0.0,0.0,42,0.00,,OVC026,0.00,VWS V14.01,2013-01-05 15:05:00,
2013-01-05 07:10:00,46.6,24.7,30.09,ENE,58,0.0,0.0,42,0.00,,OVC026,0.00,VWS V14.01,2013-01-05 15:10:00,
2013-01-05 07:15:00,46.6,24.7,30.09,ENE,58,0.0,0.0,42,0.00,,OVC026,0.00,VWS V14.01,2013-01-05 15:15:00,
2013-01-05 07:20:00,46.4,24.6,30.09,ENE,57,0.0,0.0,42,0.00,,OVC026,0.00,VWS V14.01,2013-01-05 15:20:00,
2013-01-05 07:25:00,46.4,24.6,30.09,ENE,58,0.0,0.0,42,0.00,,OVC026,0.00,VWS V14.01,2013-01-05 15:25:00,
2013-01-05 07:30:00,46.4,24.6,30.09,ENE,58,0.0,0.0,42,0.00,,OVC026,0.00,VWS V14.01,2013-01-05 15:30:00,
2013-01-05 07:35:00,46.4,24.6,30.09,ENE,58,0.0,0.0,42,0.00,,OVC026,0.00,VWS V14.01,2013-01-05 15:35:00,
2013-01-05 07:40:00,46.4,25.1,30.09,ENE,58,0.0,0.0,43,0.00,,OVC026,0.00,VWS V14.01,2013-01-05 15:40:00,
2013-01-05 07:45:00,46.4,25.1,30.09,ENE,58,0.0,0.0,43,0.00,,OVC026,0.00,VWS V14.01,2013-01-05 15:45:00,
2013-01-05 07:50:00,46.4,25.1,30.09,ENE,58,0.0,0.0,43,0.00,,OVC026,0.00,VWS V14.01,2013-01-05 15:50:00,
2013-01-05 07:55:00,46.4,25.1,30.09,ENE,57,0.0,0.0,43,0.00,,OVC026,0.00,VWS V14.01,2013-01-05 15:55:00,
2013-01-05 08:00:00,46.4,25.1,30.09,ENE,58,0.0,0.0,43,0.00,,OVC026,0.24,VWS V14.01,2013-01-05 16:00:00,
2013-01-05 08:05:00,46.4,25.1,30.09,ENE,58,0.0,0.0,43,0.00,,OVC033,0.00,VWS V14.01,2013-01-05 16:05:00,
2013-01-05 08:10:00,46.4,25.1,30.09,ENE,58,0.0,0.0,43,0.00,,OVC033,0.00,VWS V14.01,2013-01-05 16:10:00,
2013-01-05 08:15:00,46.6,25.9,30.09,ENE,58,0.0,0.0,44,0.00,,OVC033,0.00,VWS V14.01,2013-01-05 16:15:00,
2013-01-05 08:20:00,46.6,25.9,30.09,ENE,58,0.0,0.0,44,0.00,,OVC033,0.00,VWS V14.01,2013-01-05 16:20:00,
2013-01-05 08:25:00,46.6,25.9,30.09,ENE,58,0.0,0.0,44,0.00,,OVC033,0.00,VWS V14.01,2013-01-05 16:25:00,
2013-01-05 08:30:00,46.8,26.0,30.09,ENE,58,0.0,0.0,44,0.00,,OVC033,0.00,VWS V14.01,2013-01-05 16:30:00,
2013-01-05 08:35:00,46.9,26.2,30.09,ENE,58,0.0,0.0,44,0.00,,OVC033,0.00,VWS V14.01,2013-01-05 16:35:00,
2013-01-05 08:40:00,46.9,26.2,30.09,ENE,58,0.0,0.0,44,0.00,,OVC033,0.00,VWS V14.01,2013-01-05 16:40:00,
2013-01-05 08:45:00,47.3,27.0,30.09,ENE,58,0.0,0.0,45,0.00,,OVC033,0.00,VWS V14.01,2013-01-05 16:45:00,
2013-01-05 08:50:00,47.5,27.2,30.09,South,172,0.0,0.0,45,0.00,,OVC033,0.00,VWS V14.01,2013-01-05 16:50:00,
2013-01-05 08:55:00,47.7,27.9,30.09,South,172,0.0,0.0,46,0.00,,OVC033,0.00,VWS V14.01,2013-01-05 16:55:00,
2013-01-05 09:00:00,48.2,28.4,30.09,SSE,165,0.0,0.0,46,0.00,,OVC033,0.00,VWS V14.01,2013-01-05 17:00:00,
2013-01-05 09:05:00,48.2,28.4,30.09,SSW,196,0.0,0.0,46,0.00,,OVC033,0.00,VWS V14.01,2013-01-05 17:05:00,
2013-01-05 09:10:00,48.6,28.7,30.09,SSW,197,0.0,0.0,46,0.00,,OVC033,0.00,VWS V14.01,2013-01-05 17:10:00,
2013-01-05 09:15:00,48.7,28.9,30.09,SSW,196,0.0,0.0,46,0.00,,OVC033,0.00,VWS V14.01,2013-01-05 17:15:00,
2013-01-05 09:20:00,48.7,28.9,30.09,SSW,196,0.0,0.0,46,0.00,,OVC033,0.00,VWS V14.01,2013-01-05 17:20:00,
2013-01-05 09:25:00,48.9,28.5,30.09,SSE,160,0.0,0.0,45,0.00,,OVC033,0.00,VWS V14.01,2013-01-05 17:25:00,
2013-01-05 09:30:00,48.9,28.5,30.09,SSE,160,0.0,0.0,45,0.00,,OVC033,0.00,VWS V14.01,2013-01-05 17:30:00,
2013-01-05 09:35:00,48.9,28.5,30.09,SSE,162,0.0,0.0,45,0.00,,OVC033,0.00,VWS V14.01,2013-01-05 17:35:00,
2013-01-05 09:40:00,48.7,28.4,30.09,SSE,162,0.0,0.0,45,0.00,,OVC033,0.00,VWS V14.01,2013-01-05 17:40:00,
2013-01-05 09:45:00,48.7,28.4,30.09,SSE,154,0.0,0.0,45,0.00,,OVC033,0.00,VWS V14.01,2013-01-05 17:45:00,
2013-01-05 09:49:00,48.7,28.4,30.09,ENE,68,0.0,0.0,45,0.00,,OVC033,0.00,VWS V14.01,2013-01-05 17:49:00,
2013-01-05 09:54:00,48.7,28.4,30.09,NE,54,0.0,0.0,45,0.00,,OVC033,0.00,VWS V14.01,2013-01-05 17:54:00,
2013-01-05 09:59:00,48.9,28.5,30.09,SE,134,0.0,0.0,45,0.00,,OVC033,0.00,VWS V14.01,2013-01-05 17:59:00,
2013-01-05 10:04:00,49.1,28.7,30.09,SE,142,0.0,0.0,45,0.00,,OVC033,0.00,VWS V14.01,2013-01-05 18:04:00,
2013-01-05 10:09:00,49.1,28.1,30.09,WSW,240,0.0,0.0,44,0.00,,OVC033,0.00,VWS V14.01,2013-01-05 18:09:00,
2013-01-05 10:14:00,49.1,28.1,30.06,SW,232,0.0,0.0,44,0.00,,OVC033,0.00,VWS V14.01,2013-01-05 18:14:00,
2013-01-05 10:19:00,49.1,28.1,30.06,WSW,253,0.0,0.0,44,0.00,,OVC033,0.00,VWS V14.01,2013-01-05 18:19:00,
2013-01-05 10:24:00,49.8,29.4,30.06,SE,138,0.0,0.0,45,0.00,,OVC033,0.00,VWS V14.01,2013-01-05 18:24:00,
2013-01-05 10:29:00,50.0,29.5,30.06,SE,143,0.0,0.0,45,0.00,,OVC033,0.00,VWS V14.01,2013-01-05 18:29:00,
2013-01-05 10:34:00,50.7,30.2,30.06,SSE,168,0.0,0.0,45,0.00,,OVC033,0.00,VWS V14.01,2013-01-05 18:34:00,
2013-01-05 10:39:00,50.7,30.2,30.06,SW,224,0.0,0.0,45,0.00,,OVC033,0.00,VWS V14.01,2013-01-05 18:39:00,
2013-01-05 10:44:00,51.1,30.0,30.06,WSW,251,0.0,0.0,44,0.00,,OVC033,0.00,VWS V14.01,2013-01-05 18:44:00,
2013-01-05 10:49:00,50.7,28.5,30.09,WSW,251,0.0,0.0,42,0.00,,OVC033,0.00,VWS V14.01,2013-01-05 18:49:00,
2013-01-05 10:54:00,50.9,28.6,30.09,SE,132,0.0,0.0,42,0.00,,OVC033,0.00,VWS V14.01,2013-01-05 18:54:00,
2013-01-05 10:59:00,50.9,28.6,30.09,SE,146,0.0,0.0,42,0.00,,OVC033,0.00,VWS V14.01,2013-01-05 18:59:00,
2013-01-05 11:04:00,51.3,29.0,30.09,SSE,168,0.0,0.0,42,0.00,,OVC160,0.00,VWS V14.01,2013-01-05 19:04:00,
2013-01-05 11:09:00,51.3,29.0,30.09,SE,146,0.0,0.0,42,0.00,,OVC160,0.00,VWS V14.01,2013-01-05 19:09:00,
2013-01-05 11:14:00,51.6,29.3,30.06,SSW,196,0.0,0.0,42,0.00,,OVC160,0.00,VWS V14.01,2013-01-05 19:14:00,
2013-01-05 11:19:00,51.8,28.9,30.06,SW,218,0.0,0.0,41,0.00,,OVC160,0.00,VWS V14.01,2013-01-05 19:19:00,
2013-01-05 11:24:00,51.8,28.9,30.06,SW,220,0.0,0.0,41,0.00,,OVC160,0.00,VWS V14.01,2013-01-05 19:24:00,
2013-01-05 11:29:00,51.8,28.9,30.06,SW,229,0.0,0.0,41,0.00,,OVC160,0.00,VWS V14.01,2013-01-05 19:29:00,
2013-01-05 11:34:00,52.0,28.4,30.06,SW,231,0.0,0.0,40,0.00,,OVC160,0.00,VWS V14.01,2013-01-05 19:34:00,
2013-01-05 11:39:00,52.2,28.6,30.06,SW,219,0.0,0.0,40,0.00,,OVC160,0.00,VWS V14.01,2013-01-05 19:39:00,
2013-01-05 11:44:00,52.0,28.4,30.06,South,184,0.0,0.0,40,0.00,,OVC160,0.00,VWS V14.01,2013-01-05 19:44:00,
2013-01-05 11:49:00,51.8,28.3,30.06,South,184,0.0,0.0,40,0.00,,OVC160,0.00,VWS V14.01,2013-01-05 19:49:00,
2013-01-05 11:54:00,51.8,28.3,30.06,SSW,192,0.0,0.0,40,0.00,,OVC160,0.00,VWS V14.01,2013-01-05 19:54:00,
2013-01-05 11:59:00,52.2,28.0,30.06,SSW,192,0.0,0.0,39,0.00,,OVC160,0.00,VWS V14.01,2013-01-05 19:59:00,
2013-01-05 12:04:00,52.2,28.0,30.06,SSW,192,0.0,0.0,39,0.00,,OVC160,0.00,VWS V14.01,2013-01-05 20:04:00,
2013-01-05 12:09:00,52.2,28.0,30.06,SSW,192,0.0,0.0,39,0.00,,OVC160,0.00,VWS V14.01,2013-01-05 20:09:00,
2013-01-05 12:14:00,52.3,28.1,30.06,SSE,158,0.0,0.0,39,0.00,,OVC160,0.00,VWS V14.01,2013-01-05 20:14:00,
2013-01-05 12:19:00,52.3,28.1,30.06,SSE,158,0.0,0.0,39,0.00,,OVC160,0.00,VWS V14.01,2013-01-05 20:19:00,
2013-01-05 12:24:00,52.5,28.3,30.03,NW,318,0.0,0.0,39,0.00,,OVC160,0.00,VWS V14.01,2013-01-05 20:24:00,
2013-01-05 12:29:00,52.3,28.1,30.03,West,265,0.0,0.0,39,0.00,,OVC160,0.00,VWS V14.01,2013-01-05 20:29:00,
2013-01-05 12:34:00,52.3,28.1,30.03,West,265,0.0,0.0,39,0.00,,OVC160,0.00,VWS V14.01,2013-01-05 20:34:00,
2013-01-05 12:39:00,52.2,28.0,30.03,West,265,0.0,0.0,39,0.00,,OVC160,0.00,VWS V14.01,2013-01-05 20:39:00,
2013-01-05 12:44:00,52.2,28.0,30.03,West,265,0.0,0.0,39,0.00,,OVC160,0.00,VWS V14.01,2013-01-05 20:44:00,
2013-01-05 12:49:00,52.3,28.1,30.03,West,265,0.0,0.0,39,0.00,,OVC160,0.00,VWS V14.01,2013-01-05 20:49:00,
2013-01-05 12:54:00,52.3,28.1,30.03,West,264,0.0,0.0,39,0.00,,OVC160,0.00,VWS V14.01,2013-01-05 20:54:00,
2013-01-05 12:59:00,52.3,28.1,30.00,West,265,0.0,0.0,39,0.00,,OVC160,0.00,VWS V14.01,2013-01-05 20:59:00,
2013-01-05 13:04:00,52.3,28.1,30.00,West,264,0.0,0.0,39,0.00,,OVC160,0.00,VWS V14.01,2013-01-05 21:04:00,
2013-01-05 13:09:00,52.3,28.1,30.00,South,185,0.0,0.0,39,0.00,,OVC160,0.00,VWS V14.01,2013-01-05 21:09:00,
2013-01-05 13:14:00,52.3,28.1,30.00,South,186,0.0,0.0,39,0.00,,OVC160,0.00,VWS V14.01,2013-01-05 21:14:00,
2013-01-05 13:19:00,52.3,28.1,30.00,South,186,0.0,0.0,39,0.00,,OVC160,0.00,VWS V14.01,2013-01-05 21:19:00,
2013-01-05 13:24:00,52.2,28.0,30.00,South,186,0.0,0.0,39,0.00,,OVC160,0.00,VWS V14.01,2013-01-05 21:24:00,
2013-01-05 13:29:00,52.0,27.8,30.00,South,186,0.0,0.0,39,0.00,,OVC160,0.00,VWS V14.01,2013-01-05 21:29:00,
2013-01-05 13:34:00,51.8,27.6,30.00,South,186,0.0,0.0,39,0.00,,OVC160,0.00,VWS V14.01,2013-01-05 21:34:00,
2013-01-05 13:39:00,51.6,28.1,30.00,South,186,0.0,0.0,40,0.00,,OVC160,0.00,VWS V14.01,2013-01-05 21:39:00,
2013-01-05 13:44:00,51.6,28.1,30.00,South,186,0.0,0.0,40,0.00,,OVC160,0.00,VWS V14.01,2013-01-05 21:44:00,
2013-01-05 13:49:00,51.6,28.1,30.00,WSW,245,0.0,0.0,40,0.00,,OVC160,0.00,VWS V14.01,2013-01-05 21:49:00,
2013-01-05 13:54:00,51.6,28.1,30.00,WSW,245,0.0,0.0,40,0.00,,OVC160,0.00,VWS V14.01,2013-01-05 21:54:00,
2013-01-05 13:59:00,51.6,28.1,30.00,WSW,246,0.0,0.0,40,0.00,,OVC160,0.00,VWS V14.01,2013-01-05 21:59:00,
2013-01-05 14:04:00,51.6,28.1,30.00,WSW,245,0.0,0.0,40,0.00,,OVC160,0.00,VWS V14.01,2013-01-05 22:04:00,
2013-01-05 14:09:00,51.6,28.1,30.00,WSW,245,0.0,0.0,40,0.00,,OVC160,0.00,VWS V14.01,2013-01-05 22:09:00,
2013-01-05 14:14:00,51.6,28.1,30.00,WSW,245,0.0,0.0,40,0.00,,OVC160,0.00,VWS V14.01,2013-01-05 22:14:00,
2013-01-05 14:19:00,51.8,27.6,29.97,WSW,245,0.0,0.0,39,0.00,,OVC160,0.00,VWS V14.01,2013-01-05 22:19:00,
2013-01-05 14:24:00,51.8,28.3,29.97,WSW,245,0.0,0.0,40,0.00,,OVC160,0.00,VWS V14.01,2013-01-05 22:24:00,
2013-01-05 14:29:00,52.0,28.4,29.97,WSW,245,0.0,0.0,40,0.00,,OVC160,0.00,VWS V14.01,2013-01-05 22:29:00,
2013-01-05 14:34:00,52.0,28.4,29.97,WSW,245,0.0,0.0,40,0.00,,OVC160,0.00,VWS V14.01,2013-01-05 22:34:00,
2013-01-05 14:39:00,52.0,28.4,29.97,WSW,245,0.0,0.0,40,0.00,,OVC160,0.00,VWS V14.01,2013-01-05 22:39:00,
2013-01-05 14:44:00,52.0,28.4,29.97,WSW,245,0.0,0.0,40,0.00,,OVC160,0.00,VWS V14.01,2013-01-05 22:44:00,
2013-01-05 14:49:00,52.0,28.4,29.97,WSW,245,0.0,0.0,40,0.00,,OVC160,0.00,VWS V14.01,2013-01-05 22:49:00,
2013-01-05 14:54:00,52.0,28.4,29.97,WSW,245,0.0,0.0,40,0.00,,OVC160,0.00,VWS V14.01,2013-01-05 22:54:00,
2013-01-05 14:59:00,52.0,28.4,29.97,WSW,245,0.0,0.0,40,0.00,,OVC160,0.00,VWS V14.01,2013-01-05 22:59:00,
2013-01-05 15:04:00,52.0,28.4,29.97,WSW,245,0.0,0.0,40,0.00,,-RA,0.00,VWS V14.01,2013-01-05 23:04:00,
2013-01-05 15:09:00,51.6,28.1,29.97,WSW,245,0.0,0.0,40,0.00,,-RA,0.00,VWS V14.01,2013-01-05 23:09:00,
2013-01-05 15:14:00,51.6,28.7,29.97,WSW,245,0.0,0.0,41,0.00,,-RA,0.00,VWS V14.01,2013-01-05 23:14:00,
2013-01-05 15:19:00,51.4,28.5,29.97,WSW,245,0.0,0.0,41,0.00,,-RA,0.00,VWS V14.01,2013-01-05 23:19:00,
2013-01-05 15:24:00,51.3,28.4,29.97,WSW,245,0.0,0.0,41,0.00,,-RA,0.00,VWS V14.01,2013-01-05 23:24:00,
2013-01-05 15:29:00,51.3,28.4,29.97,WSW,245,0.0,0.0,41,0.00,,-RA,0.00,VWS V14.01,2013-01-05 23:29:00,
2013-01-05 15:34:00,50.9,28.1,29.97,WSW,245,0.0,0.0,41,0.00,,-RA,0.00,VWS V14.01,2013-01-05 23:34:00,
2013-01-05 15:39:00,50.9,28.1,29.97,WSW,245,0.0,0.0,41,0.00,,-RA,0.00,VWS V14.01,2013-01-05 23:39:00,
2013-01-05 15:44:00,50.7,28.5,29.97,WSW,245,0.0,0.0,42,0.00,,-RA,0.00,VWS V14.01,2013-01-05 23:44:00,
2013-01-05 15:49:00,50.5,28.3,29.97,WSW,245,0.0,0.0,42,0.00,,-RA,0.00,VWS V14.01,2013-01-05 23:49:00,
2013-01-05 15:54:00,50.5,28.9,29.94,WSW,246,0.0,0.0,43,0.00,,-RA,0.00,VWS V14.01,2013-01-05 23:54:00,
2013-01-05 15:59:00,50.4,28.7,29.94,WSW,245,0.0,0.0,43,0.00,,-RA,0.00,VWS V14.01,2013-01-05 23:59:00,
2013-01-05 16:04:00,50.2,28.6,29.94,WSW,245,0.0,0.0,43,0.00,,OVC034,0.00,VWS V14.01,2013-01-06 00:04:00,
2013-01-05 16:09:00,50.2,28.6,29.94,WSW,245,0.0,0.0,43,0.00,,OVC034,0.00,VWS V14.01,2013-01-06 00:09:00,
2013-01-05 16:14:00,50.0,29.5,29.94,WSW,245,0.0,0.0,45,0.00,,OVC034,0.00,VWS V14.01,2013-01-06 00:14:00,
2013-01-05 16:19:00,49.8,29.9,29.94,WSW,245,0.0,0.0,46,0.00,,OVC034,0.00,VWS V14.01,2013-01-06 00:19:00,
2013-01-05 16:24:00,49.8,29.9,29.94,WSW,245,0.0,0.0,46,0.00,,OVC034,0.00,VWS V14.01,2013-01-06 00:24:00,
2013-01-05 16:29:00,49.8,30.4,29.94,WSW,246,0.0,0.0,47,0.00,,OVC034,0.00,VWS V14.01,2013-01-06 00:29:00,
2013-01-05 16:34:00,50.0,30.0,29.94,WSW,245,0.0,0.0,46,0.00,,-RA,0.00,VWS V14.01,2013-01-06 00:34:00,
2013-01-05 16:39:00,50.0,30.0,29.94,WSW,244,0.0,0.0,46,0.00,,-RA,0.00,VWS V14.01,2013-01-06 00:39:00,
2013-01-05 16:44:00,50.0,30.6,29.94,WSW,245,0.0,0.0,47,0.00,,-RA,0.00,VWS V14.01,2013-01-06 00:44:00,
2013-01-05 16:49:00,50.0,30.6,29.94,WSW,245,0.0,0.0,47,0.00,,OVC031,0.00,VWS V14.01,2013-01-06 00:49:00,
2013-01-05 16:54:00,50.0,30.6,29.94,WSW,244,0.0,0.0,47,0.00,,OVC031,0.00,VWS V14.01,2013-01-06 00:54:00,
2013-01-05 16:59:00,50.0,30.6,29.94,WSW,245,0.0,0.0,47,0.00,,OVC031,0.00,VWS V14.01,2013-01-06 00:59:00,
2013-01-05 17:04:00,50.0,30.6,29.94,WSW,245,0.0,0.0,47,0.00,,OVC031,0.00,VWS V14.01,2013-01-06 01:04:00,
2013-01-05 17:09:00,50.0,31.1,29.94,WSW,245,0.0,0.0,48,0.00,,OVC031,0.00,VWS V14.01,2013-01-06 01:09:00,
2013-01-05 17:14:00,49.8,30.9,29.94,WSW,245,0.0,0.0,48,0.00,,OVC031,0.00,VWS V14.01,2013-01-06 01:14:00,
2013-01-05 17:19:00,49.8,31.4,29.94,WSW,244,0.0,0.0,49,0.00,,OVC031,0.00,VWS V14.01,2013-01-06 01:19:00,
2013-01-05 17:24:00,49.8,31.4,29.94,WSW,244,0.0,0.0,49,0.00,,OVC031,0.00,VWS V14.01,2013-01-06 01:24:00,
2013-01-05 17:29:00,49.8,31.4,29.94,WSW,246,0.0,0.0,49,0.00,,OVC031,0.00,VWS V14.01,2013-01-06 01:29:00,
2013-01-05 17:34:00,49.8,31.4,29.94,WSW,245,0.0,0.0,49,0.00,,OVC031,0.00,VWS V14.01,2013-01-06 01:34:00,
2013-01-05 17:39:00,49.8,31.9,29.94,WSW,245,0.0,0.0,50,0.00,,OVC031,0.00,VWS V14.01,2013-01-06 01:39:00,
2013-01-05 17:44:00,50.0,31.6,29.94,WSW,246,0.0,0.0,49,0.00,,OVC031,0.00,VWS V14.01,2013-01-06 01:44:00,
2013-01-05 17:49:00,50.0,31.6,29.94,WSW,245,0.0,0.0,49,0.00,,OVC031,0.00,VWS V14.01,2013-01-06 01:49:00,
2013-01-05 17:54:00,50.0,32.1,29.94,WSW,245,0.0,0.0,50,0.00,,OVC031,0.00,VWS V14.01,2013-01-06 01:54:00,
2013-01-05 17:59:00,50.0,32.1,29.94,WSW,245,0.0,0.0,50,0.00,,OVC031,0.00,VWS V14.01,2013-01-06 01:59:00,
2013-01-05 18:04:00,50.0,32.1,29.94,WSW,245,0.0,0.0,50,0.00,,-RA,0.00,VWS V14.01,2013-01-06 02:04:00,
2013-01-05 18:09:00,50.0,32.1,29.94,WSW,246,0.0,0.0,50,0.00,,-RA,0.00,VWS V14.01,2013-01-06 02:09:00,
2013-01-05 18:14:00,50.0,32.1,29.94,WSW,245,0.0,0.0,50,0.00,,-RA,0.00,VWS V14.01,2013-01-06 02:14:00,
2013-01-05 18:19:00,50.0,32.6,29.94,WSW,245,0.0,0.0,51,0.00,,-RA,0.00,VWS V14.01,2013-01-06 02:19:00,
2013-01-05 18:24:00,50.0,32.6,29.94,WSW,245,0.0,0.0,51,0.00,,-RA,0.00,VWS V14.01,2013-01-06 02:24:00,
2013-01-05 18:29:00,50.0,32.6,29.91,WSW,246,0.0,0.0,51,0.00,,-RA,0.00,VWS V14.01,2013-01-06 02:29:00,
2013-01-05 18:34:00,50.2,32.8,29.91,WSW,245,0.0,0.0,51,0.00,,-RA,0.00,VWS V14.01,2013-01-06 02:34:00,
2013-01-05 18:39:00,50.2,32.8,29.91,WSW,245,0.0,0.0,51,0.00,,-RA,0.00,VWS V14.01,2013-01-06 02:39:00,
2013-01-05 18:44:00,50.2,32.8,29.91,WSW,244,0.0,0.0,51,0.00,,-RA,0.00,VWS V14.01,2013-01-06 02:44:00,
2013-01-05 18:49:00,50.0,32.6,29.91,West,279,0.0,0.0,51,0.00,,-RA,0.00,VWS V14.01,2013-01-06 02:49:00,
2013-01-05 18:54:00,50.0,32.6,29.91,WSW,248,0.0,0.0,51,0.00,,-RA,0.00,VWS V14.01,2013-01-06 02:54:00,
2013-01-05 18:59:00,50.0,32.6,29.91,WSW,248,0.0,0.0,51,0.00,,-RA,0.00,VWS V14.01,2013-01-06 02:59:00,
2013-01-05 19:04:00,50.0,33.1,29.91,WSW,248,0.0,0.0,52,0.00,,-RA,0.00,VWS V14.01,2013-01-06 03:04:00,
2013-01-05 19:09:00,50.0,33.1,29.91,WSW,248,0.0,0.0,52,0.00,,-RA,0.00,VWS V14.01,2013-01-06 03:09:00,
2013-01-05 19:14:00,50.0,33.6,29.91,WSW,249,0.0,0.0,53,0.00,,-RA,0.00,VWS V14.01,2013-01-06 03:14:00,
2013-01-05 19:19:00,50.0,33.6,29.91,WSW,249,0.0,0.0,53,0.00,,-RA,0.00,VWS V14.01,2013-01-06 03:19:00,
2013-01-05 19:23:00,50.0,33.6,29.91,WSW,248,0.0,0.0,53,0.00,,-RA,0.00,VWS V14.01,2013-01-06 03:23:00,
2013-01-05 19:28:00,50.2,33.7,29.91,WSW,249,0.0,0.0,53,0.00,,OVC027,0.00,VWS V14.01,2013-01-06 03:28:00,
2013-01-05 19:33:00,50.2,33.7,29.91,WSW,248,0.0,0.0,53,0.00,,OVC027,0.00,VWS V14.01,2013-01-06 03:33:00,
2013-01-05 19:38:00,50.2,33.7,29.91,WSW,249,0.0,0.0,53,0.00,,OVC027,0.00,VWS V14.01,2013-01-06 03:38:00,
2013-01-05 19:43:00,50.2,33.7,29.91,WSW,248,0.0,0.0,53,0.00,,-RA,0.00,VWS V14.01,2013-01-06 03:43:00,
2013-01-05 19:48:00,50.2,33.7,29.91,WSW,248,0.0,0.0,53,0.00,,-RA,0.00,VWS V14.01,2013-01-06 03:48:00,
2013-01-05 19:53:00,50.2,34.2,29.91,ESE,109,0.0,0.0,54,0.00,,-RA,0.00,VWS V14.01,2013-01-06 03:53:00,
2013-01-05 19:58:00,50.2,34.2,29.91,ESE,109,0.0,0.0,54,0.00,,-RA,0.00,VWS V14.01,2013-01-06 03:58:00,
2013-01-05 20:03:00,50.2,34.7,29.91,ESE,109,0.0,0.0,55,0.00,,-RA,0.00,VWS V14.01,2013-01-06 04:03:00,
2013-01-05 20:08:00,50.2,34.7,29.91,ESE,109,0.0,0.0,55,0.00,,-RA,0.00,VWS V14.01,2013-01-06 04:08:00,
2013-01-05 20:13:00,50.2,34.7,29.91,ESE,109,0.0,0.0,55,0.00,,-RA,0.00,VWS V14.01,2013-01-06 04:13:00,
2013-01-05 20:18:00,50.4,34.8,29.91,ESE,109,0.0,0.0,55,0.00,,-RA,0.00,VWS V14.01,2013-01-06 04:18:00,
2013-01-05 20:23:00,50.4,34.8,29.91,ESE,110,0.0,0.0,55,0.00,,-RA,0.00,VWS V14.01,2013-01-06 04:23:00,
2013-01-05 20:28:00,50.4,35.3,29.91,ESE,110,0.0,0.0,56,0.00,,-RA,0.00,VWS V14.01,2013-01-06 04:28:00,
2013-01-05 20:33:00,50.4,35.3,29.91,NW,305,0.0,0.0,56,0.00,,-RA,0.00,VWS V14.01,2013-01-06 04:33:00,
2013-01-05 20:38:00,50.4,35.3,29.91,WNW,299,0.0,0.0,56,0.00,,-RA,0.00,VWS V14.01,2013-01-06 04:38:00,
2013-01-05 20:43:00,50.0,34.5,29.91,NW,306,0.0,0.0,55,0.00,,-RA,0.00,VWS V14.01,2013-01-06 04:43:00,
2013-01-05 20:48:00,50.0,34.5,29.91,NW,307,0.0,0.0,55,0.00,,-RA,0.00,VWS V14.01,2013-01-06 04:48:00,
2013-01-05 20:53:00,49.8,35.2,29.91,NW,306,0.0,0.0,57,0.00,,-RA,0.00,VWS V14.01,2013-01-06 04:53:00,
2013-01-05 20:58:00,49.8,35.2,29.91,NW,306,0.0,0.0,57,0.00,,-RA,0.00,VWS V14.01,2013-01-06 04:58:00,
2013-01-05 21:00:00,49.8,35.2,29.91,NW,306,0.0,0.0,57,0.00,,OVC034,0.00,VWS V14.01,2013-01-06 05:00:00,
2013-01-05 21:01:00,50.0,35.4,29.91,NW,306,0.0,0.0,57,0.00,,OVC034,0.00,VWS V14.01,2013-01-06 05:01:00,
2013-01-05 21:06:00,50.0,35.4,29.91,NW,307,0.0,0.0,57,0.00,,OVC034,0.00,VWS V14.01,2013-01-06 05:06:00,
2013-01-05 21:11:00,50.0,35.4,29.91,NW,306,0.0,0.0,57,0.00,,OVC034,0.00,VWS V14.01,2013-01-06 05:11:00,
2013-01-05 21:16:00,50.0,35.4,29.91,WNW,295,0.0,0.0,57,0.00,,OVC034,0.00,VWS V14.01,2013-01-06 05:16:00,
2013-01-05 21:21:00,49.5,34.9,29.91,WNW,302,0.0,0.0,57,0.00,,OVC034,0.00,VWS V14.01,2013-01-06 05:21:00,
2013-01-05 21:26:00,49.3,34.7,29.91,WNW,301,0.0,0.0,57,0.00,,OVC034,0.00,VWS V14.01,2013-01-06 05:26:00,
2013-01-05 21:31:00,49.3,35.1,29.91,WNW,301,0.0,0.0,58,0.00,,OVC034,0.00,VWS V14.01,2013-01-06 05:31:00,
2013-01-05 21:36:00,49.3,35.1,29.91,WNW,300,0.0,0.0,58,0.00,,OVC034,0.00,VWS V14.01,2013-01-06 05:36:00,
2013-01-05 21:41:00,49.3,35.1,29.91,WNW,300,0.0,0.0,58,0.00,,OVC034,0.00,VWS V14.01,2013-01-06 05:41:00,
2013-01-05 21:46:00,49.1,35.0,29.91,WNW,302,0.0,0.0,58,0.00,,OVC034,0.00,VWS V14.01,2013-01-06 05:46:00,
2013-01-05 21:51:00,49.1,35.0,29.91,WNW,301,0.0,0.0,58,0.00,,OVC034,0.00,VWS V14.01,2013-01-06 05:51:00,
2013-01-05 21:56:00,49.1,35.0,29.91,NW,308,0.0,0.0,58,0.00,,OVC034,0.00,VWS V14.01,2013-01-06 05:56:00,
2013-01-05 22:01:00,49.1,35.0,29.91,NW,309,0.0,0.0,58,0.00,,OVC043,0.00,VWS V14.01,2013-01-06 06:01:00,
2013-01-05 22:06:00,49.1,35.0,29.91,NW,309,0.0,0.0,58,0.00,,OVC043,0.00,VWS V14.01,2013-01-06 06:06:00,
2013-01-05 22:11:00,48.9,35.2,29.91,NW,307,0.0,0.0,59,0.00,,OVC043,0.00,VWS V14.01,2013-01-06 06:11:00,
2013-01-05 22:16:00,49.1,35.4,29.91,NW,306,0.0,0.0,59,0.00,,OVC043,0.00,VWS V14.01,2013-01-06 06:16:00,
2013-01-05 22:21:00,49.1,35.4,29.91,NW,306,0.0,0.0,59,0.00,,OVC043,0.00,VWS V14.01,2013-01-06 06:21:00,
2013-01-05 22:26:00,49.1,35.4,29.91,NW,307,0.0,0.0,59,0.00,,OVC043,0.00,VWS V14.01,2013-01-06 06:26:00,
2013-01-05 22:31:00,49.1,35.4,29.91,NW,307,0.0,0.0,59,0.00,,OVC043,0.00,VWS V14.01,2013-01-06 06:31:00,
2013-01-05 22:36:00,49.5,36.2,29.91,North,349,0.0,0.0,60,0.00,,OVC043,0.00,VWS V14.01,2013-01-06 06:36:00,
2013-01-05 22:41:00,49.6,36.3,29.91,NE,51,0.0,0.0,60,0.00,,OVC043,0.00,VWS V14.01,2013-01-06 06:41:00,
2013-01-05 22:46:00,49.6,36.3,29.91,NE,52,0.0,0.0,60,0.00,,OVC043,0.00,VWS V14.01,2013-01-06 06:46:00,
2013-01-05 22:51:00,49.8,36.5,29.91,NE,52,0.0,0.0,60,0.00,,OVC043,0.00,VWS V14.01,2013-01-06 06:51:00,
2013-01-05 22:56:00,49.8,36.5,29.91,NW,322,0.0,0.0,60,0.00,,OVC038,0.00,VWS V14.01,2013-01-06 06:56:00,
2013-01-05 23:01:00,49.8,36.5,29.91,NNW,340,0.0,0.0,60,0.00,,OVC038,0.00,VWS V14.01,2013-01-06 07:01:00,
2013-01-05 23:06:00,49.8,36.5,29.91,NE,51,0.0,0.0,60,0.00,,OVC038,0.00,VWS V14.01,2013-01-06 07:06:00,
2013-01-05 23:11:00,49.8,36.5,29.91,NE,51,0.0,0.0,60,0.00,,OVC038,0.00,VWS V14.01,2013-01-06 07:11:00,
2013-01-05 23:16:00,50.2,37.3,29.91,NE,51,0.0,0.0,61,0.00,,OVC038,0.00,VWS V14.01,2013-01-06 07:16:00,
2013-01-05 23:21:00,50.2,37.3,29.91,NE,51,0.0,0.0,61,0.00,,OVC038,0.00,VWS V14.01,2013-01-06 07:21:00,
2013-01-05 23:26:00,50.2,37.3,29.91,NE,50,0.0,0.0,61,0.00,,OVC038,0.00,VWS V14.01,2013-01-06 07:26:00,
2013-01-05 23:31:00,50.5,38.0,29.91,NE,51,0.0,0.0,62,0.00,,OVC038,0.00,VWS V14.01,2013-01-06 07:31:00,
2013-01-05 23:35:00,50.5,38.0,29.91,NE,55,0.0,0.0,62,0.00,,OVC038,0.00,VWS V14.01,2013-01-06 07:35:00,
2013-01-05 23:40:00,50.2,37.3,29.91,ENE,62,0.0,0.0,61,0.00,,OVC038,0.00,VWS V14.01,2013-01-06 07:40:00,
2013-01-05 23:45:00,49.8,36.9,29.91,ENE,63,0.0,0.0,61,0.00,,OVC038,0.00,VWS V14.01,2013-01-06 07:45:00,
2013-01-05 23:50:00,49.5,36.6,29.91,East,81,0.0,0.0,61,0.00,,OVC038,0.00,VWS V14.01,2013-01-06 07:50:00,
2013-01-05 23:55:00,49.1,36.2,29.91,NE,56,0.0,0.0,61,0.00,,OVC038,0.00,VWS V14.01,2013-01-06 07:55:00,